Location: Saluda
(35.2377°N, 82.3468°W)
Time: 17:04:41
(UTC+00:00)

Transit 2A - Pass Details

Date: 07 October 2022
Orbit: 598 x 959 km, 66.7° (Epoch: 06 December)

Event Time Altitude Azimuth Distance (km) Brightness Sun altitude
Rises 12:03:20 0° 339° (NNW) 3,003 8.8 6.1°
Reaches altitude 10° 12:05:38 10° 346° (NNW) 2,134 8.1 6.5°
Maximum altitude 12:10:19 47° 60° (ENE) 968 7.2 7.5°
Drops below altitude 10° 12:15:28 10° 134° (SE) 2,349 9.7 8.5°
Sets 12:18:05 0° 140° (SE) 3,338 10.3 9.0°
